FENGYUN 1C DEB, 36167

Orbit data source: Space-Track

FENGYUN 1C DEB, 36167 is space debris in SSO originally from a launch on Mon, 10 May 1999 UTC launched from the Taiyaun Space Center, China (TSC). Fengyun 1C debris stems from the Chinese weather satellite Fengyun-1C, which was intentionally destroyed by a Chinese anti-satellite missile in 2007. This event dramatically increased the amount of space debris, with thousands of trackable fragments posing hazards to satellites and human spaceflight. The Fengyun 1C debris cloud has become a focal point in discussions about space sustainability and the need for international regulations to prevent the creation of new debris.

Loading next visibility...
Identifier
36167, 1999-025DSQ
Orbit
SSO
Country
Flag of CNCN / PRC
Related business
Manufacturer
Unknown
Mission
Spacecraft
Bus & Motor
Unknown
Mass
Unknown
Launch date (UTC)
1999-05-10 (27 years ago)
Launch vehicle
Unknown
Launch site
Taiyaun Space Center, China (TSC)
Object type
Payload
Rocket body
Debris
Shape & HBR
Unknown shape, 0.1 m
Radar Cross Section
Small (<0.1 m²)

Expand to show TLE details & history
Last TLE update: 3 weeks ago

TLE from 3 weeks ago
0 FENGYUN 1C DEB
1 36167U 99025DSQ 26218.03996707  .00001474  00000-0  37589-3 0  9999
2 36167  98.8085 141.0537 0066341 251.4674 107.9303 14.50916367707046
Epoch: 2026-08-06T00:57Z
TLE epoch observation values (Epoch: 2026-08-06T00:57:33.154Z)
Latitude
-0.0001°
Longitude
172.07984°
Altitude
740.398 km
Speed
7.477 km/s
True Right ascension
09h 24m 12s
True Declination
0° 00' 00"
Sunlit
Object was in daylight at epoch
Visualization orbit readout
Latitude
Unknown
Longitude
Unknown
Altitude
Unknown
Speed
Unknown
Apparent Right ascension
Unknown
Apparent Declination
Unknown
Sunlit
N/A
Visualization observer readout
Local Sidereal Time
17:08:33
Azimuth
Unknown
Elevation
Unknown
Doppler factor
Unknown
Orbital elements
Apogee altitude
766.867 km
Perigee altitude
672.691 km
Semi-major axis
7,097.916 km
Eccentricity
0.00663
Inclination
98.8085°
RAAN
141.0537°
Arg. of periapsis
251.4674°
True anomaly
108.65173°
Mean anomaly
107.9303°
Eccentric anomaly
108.2912°
Mean motion
3.6295 °/min
Orbital period
99.19 mins
BSTAR
0.00037589
Loading maneuver chart data...
Computing Atmospheric mass density...
Loading historical data...
Loading historical data...
Loading historical data...
Loading historical data...
Loading historical data...
Loading historical data...
Loading historical data...

Documentation

Showing up to 5 results
|